EST,Max TemperatureF,Mean TemperatureF,Min TemperatureF,Max Dew PointF,MeanDew PointF,Min DewpointF,Max Humidity, Mean Humidity, Min Humidity, Max Sea Level PressureIn, Mean Sea Level PressureIn, Min Sea Level PressureIn, Max VisibilityMiles, Mean VisibilityMiles, Min VisibilityMiles, Max Wind SpeedMPH, Mean Wind SpeedMPH, Max Gust SpeedMPH,PrecipitationIn, CloudCover, Events, WindDirDegrees
2013-1-1,45,41,36,32,28,21,75,62,40,30.02,29.98,29.92,10,10,10,24,10,33,0.00,4,,270
2013-1-2,39,32,27,31,21,15,80,58,40,30.21,30.11,30.00,10,10,10,9,3,16,0.00,2,,323
2013-1-3,42,31,20,23,19,16,89,62,36,30.23,30.18,30.12,10,9,5,16,3,24,0.00,1,,265
2013-1-4,39,36,33,21,20,18,59,52,47,30.23,30.20,30.16,10,10,10,25,11,32,0.00,2,,257
2013-1-5,48,40,31,29,22,14,82,55,27,30.36,30.26,30.17,10,10,10,16,6,23,0.00,1,,254
2013-1-6,47,39,32,30,28,25,83,61,45,30.19,30.10,30.03,10,10,10,17,2,24,0.00,8,,255
2013-1-7,45,34,23,29,26,22,91,66,47,30.46,30.36,30.19,10,9,4,17,5,24,0.00,4,,294
2013-1-8,57,36,17,31,24,15,92,77,28,30.41,30.36,30.32,10,7,3,5,0,,0.00,0,,280
2013-1-9,64,44,24,46,31,22,92,68,30,30.46,30.34,30.24,10,8,5,28,3,51,0.00,2,,243
2013-1-10,56,44,32,35,31,28,87,63,35,30.61,30.50,30.44,10,10,7,14,2,,0.00,0,,281
2013-1-11,55,44,32,48,38,31,92,85,67,30.43,30.22,30.07,10,8,3,14,1,18,0.01,6,Rain,154
2013-1-12,67,54,40,52,45,38,94,84,55,30.16,30.11,30.07,10,5,0,4,0,,0.00,5,Fog,93
2013-1-13,87,64,43,83,51,42,95,85,63,30.07,30.00,29.94,10,6,0,9,1,17,0.00,5,Fog,172
2013-1-14,64,52,39,57,43,35,90,74,60,30.33,30.18,29.97,10,9,2,21,2,24,0.32,7,Rain,356
2013-1-15,39,37,35,37,35,33,91,89,85,30.35,30.25,30.13,10,4,1,5,0,,0.70,8,Rain-Snow,60
2013-1-16,49,42,34,40,37,32,92,85,63,30.12,29.98,29.79,10,9,2,14,1,25,0.19,7,Rain-Snow,310
2013-1-17,46,42,37,34,27,17,84,59,34,30.13,30.08,30.02,10,10,10,12,2,,0.00,2,,314
2013-1-18,43,34,27,24,16,8,76,48,24,30.48,30.36,30.14,10,10,7,28,9,34,0.00,1,,291
2013-1-19,61,43,25,28,18,12,77,39,14,30.33,30.15,29.91,10,10,10,17,3,25,0.00,0,,189
2013-1-20,55,45,36,29,16,1,45,30,17,30.09,29.96,29.84,10,10,10,28,13,44,0.00,1,,256
2013-1-21,46,36,24,23,13,7,77,47,21,30.08,29.97,29.81,10,10,7,23,7,37,0.00,5,Snow,272
2013-1-22,24,19,14,6,-3,-7,51,38,26,30.25,30.17,30.00,10,10,10,22,14,36,0.00,3,,280
2013-1-23,27,20,14,19,2,-6,87,45,25,30.30,30.20,30.06,10,9,2,15,4,20,0.00,7,Snow,265
2013-1-24,27,19,11,19,9,1,88,63,35,30.52,30.32,30.03,10,8,2,21,4,26,0.00,4,Snow,325
2013-1-25,26,18,10,19,12,6,89,77,41,30.51,30.22,30.02,10,8,0,14,1,17,0.00,6,Snow,167
2013-1-26,34,26,17,25,20,15,89,63,53,30.43,30.20,30.00,10,9,5,22,8,36,0.00,8,Snow,289
2013-1-27,41,30,19,26,20,14,84,62,42,30.55,30.46,30.41,10,10,7,6,1,,0.00,3,,7
2013-1-28,61,46,31,50,36,21,92,79,60,30.40,30.19,30.05,10,6,2,17,2,33,0.09,8,Rain,268
2013-1-29,77,62,46,56,50,45,94,76,38,30.12,30.04,29.92,10,8,0,12,3,17,0.01,4,Rain,200
2013-1-30,73,60,46,58,53,43,94,77,57,29.92,29.61,29.29,10,8,0,23,8,33,0.90,5,Rain,177
2013-1-31,53,42,31,46,23,12,83,58,44,29.89,29.67,29.24,10,9,1,34,16,46,0.10,8,Rain-Snow,261